Regional Weather Roundup
Issued by NWS

Home | Current Version | Previous Version | Graphics & Text | Print | Product List | Glossary On
Versions: 1 2 3 4 5 6 7 8 9 10 11 12 13 14 15 16 17 18 19 20 21 22 23 24 25 26 27 28 29 30 31 32 33 34 35 36 37 38 39 40 41 42 43 44 45 46 47 48 49 50
000
ASUS45 KTFX 171819
RWRMT
MONTANA HOURLY WEATHER ROUNDUP
NATIONAL WEATHER SERVICE GREAT FALLS MT
1219 PM MDT WED SEP 17 2014

NOTE: "FAIR" INDICATES FEW OR NO CLOUDS BELOW 12000 FEET WITH NO
SIGNIFICANT WEATHER AND/OR OBSTRUCTIONS TO VISIBILITY.

* THESE STATIONS ARE NOT UNDER NWS QUALITY CONTROL. THEY DO NOT
   REPORT WEATHER SUCH AS PRECIPITATION OR FOG.

MTZ001>007-043-171900-
WEST OF THE DIVIDE
CITY           SKY/WX    TMP DP  RH WIND       PRES   REMARKS
KALISPELL      PTCLDY    70  46  42 N3        29.87F
MISSOULA       PTCLDY    66  46  49 CALM      29.92F
BUTTE          PTCLDY    70  43  38 NW3       30.03F
MULLAN PASS    PTSUNNY   64  45  50 SE5       30.00F
* ESSEX        N/A       65  45  49 E1         N/A
* LINCOLN      N/A       63  44  50 S2         N/A
* LOOKOUT PASS N/A       67  46  47 S6G11      N/A
* POLSON       N/A       71  52  51 S3         N/A
* RONAN APT    PTCLDY    73  48  41 N/A        N/A
* SEELEY LAKE  N/A       69  44  41 SE2        N/A
* THOMP F APT  PTCLDY    72  41  33 SW3G9      N/A
$$

MTZ008-052>055-171900-
SOUTHWEST MONTANA
CITY           SKY/WX    TMP DP  RH WIND       PRES   REMARKS
BOZEMAN        SUNNY     70  48  46 CALM      30.00F
DILLON         PTCLDY    70  43  38 VRB3      30.02F
W YELLOWSTONE  SUNNY     64  41  43 CALM      30.14F
* THREE FORKS  SUNNY     72  72 100 N/A        N/A
* BOULDER HILL N/A       65  43  45 S12G17     N/A
* MONIDA PASS  N/A       70  39  32 E11        N/A
* RAYNOLDS PAS N/A       68  48  49 SE17       N/A
* WHITEHALL    N/A       69  50  51 NE3        N/A
* WISE RIVER   N/A       61  45  56 NW3        N/A
$$

MTZ009>010-012-014-046-048-049-054-171900-
EAST SLOPES AND CENTRAL MONTANA
CITY           SKY/WX    TMP DP  RH WIND       PRES   REMARKS
CUT BANK       PTCLDY    75  45  34 VRB5      29.89F
GREAT FALLS    PTCLDY    75  50  42 S6        29.89F
HELENA         SUNNY     68  48  49 CALM      29.95F
MALMSTROM AFB  PTCLDY    73  50  44 VRB1      29.90F
* CONRAD       PTCLDY    79  46  31 N/A        N/A
* EAST GLACIER N/A       72  44  37 W10G16     N/A
* MONARCH      N/A       73  41  32 S5         N/A
* PENDROY      N/A       76  45  33 S5         N/A
* ROGERS PASS  N/A       72  43  35 SE1G12     N/A
* SAINT MARY   N/A       69  47  46 W4         N/A
* SWEET GRASS  N/A       74  38  27 S4         N/A
* WHITE SULPH  N/A       75  45  34 S10G15     N/A
$$

MTZ011-013-016-021-035-040-045-047-050-051-171900-
NORTH CENTRAL MONTANA
CITY           SKY/WX    TMP DP  RH WIND       PRES   REMARKS
HAVRE          SUNNY     72  50  46 S3        29.86F
LEWISTOWN      PTCLDY    81  46  29 CALM      29.94F
* CHINOOK      SUNNY     70  54  57 NE3       29.86F
* FORT BENTON  PTCLDY    77  50  39 CALM      29.87F
* CHESTER      N/A       74  46  37 S2         N/A
* DENTON       N/A       77  49  37 SE4        N/A
* GEYSER       N/A       74  46  37 NE7        N/A
* JUDITH GAP   N/A       75  48  39 S5         N/A
* LOMA         N/A       72  50  46 SW4        N/A
$$

MTZ017>020-022>027-061-062-171900-
NORTHEAST MONTANA
CITY           SKY/WX    TMP DP  RH WIND       PRES   REMARKS
GLASGOW        PTCLDY    72  45  38 SE15      29.89S
GLENDIVE       PTSUNNY   66  52  61 NE12      29.95R
JORDAN         PTCLDY    75  48  39 SE13      29.89F
SIDNEY         PTSUNNY   75  43  32 SE14      29.95F
WOLF POINT     PTCLDY    66  48  52 E8        29.91F
* BEAVER HILL  N/A       65  47  52 E21G28     N/A
* CIRCLE       N/A       71  52  51 E9         N/A
* LINDSAY DVD  N/A       68  49  51 E12        N/A
* NAVAJO       N/A       73  41  32 SE15       N/A
* SACO         N/A       69  49  49 NE8        N/A
$$

MTZ028>042-056>058-171900-
SOUTHCENTRAL AND SOUTHEAST MONTANA
CITY           SKY/WX    TMP DP  RH WIND       PRES   REMARKS
BAKER          PTCLDY    72  48  43 E14       29.96S
BILLINGS       PTCLDY    81  45  28 SW12      29.93F
LIVINGSTON     SUNNY     75  48  39 N5        29.99F
MILES CITY     SUNNY     72  48  43 NE8       29.91F
* LAUREL APT   SUNNY     79  48  34 SW10G15    N/A
* ROUNDUP APT  SUNNY     77  48  36 N/A        N/A
* ALZADA       N/A       76  41  29 E10        N/A
* HYSHAM       N/A       74  46  37 W7         N/A
* LAME DEER    N/A       75  48  39 SW7G12     N/A
* REED POINT   N/A       75  51  43 W4         N/A
* ROSCOE HILL  N/A       74  38  27 SE6        N/A
$$

REGIONAL REPORTS...DAKOTAS
CITY           SKY/WX    TMP DP  RH WIND       PRES   REMARKS
WILLISTON      PTSUNNY   72  43  35 S9        29.95F
DICKINSON      CLOUDY    66  45  47 E12       29.97S
BEACH          N/A       66  48  52 SE20      29.94F
CROSBY         SUNNY     63  48  58 E12G17    29.99F
TIOGA          SUNNY     72  39  30 SE14      30.01S
WATFORD CITY   SUNNY     75  41  30 SE14      29.94F
BISMARCK       PTCLDY    73  50  44 E8        29.98F
GRAND FORKS    SUNNY     63  52  68 N14       30.00S
FARGO          SUNNY     70  50  49 VRB6      29.96S
BUFFALO SD     PTCLDY    73  50  44 SE10G20   29.90S
RAPID CITY     PTCLDY    73  48  41 E5        29.97F
$$

REGIONAL REPORTS...WYOMING/IDAHO/WASHINGTON
CITY           SKY/WX    TMP DP  RH WIND       PRES   REMARKS
GILLETTE       PTCLDY    81  43  26 CALM      30.00S
SHERIDAN       PTCLDY    81  46  29 NW7       29.97S
CODY           SUNNY     75  45  34 SE9       30.01F VSB 3
YELLOWSTONE LA SUNNY     55  41  59 E3        30.25F
SALMON         PTSUNNY   64  46  52 CALM      29.97F
MULLAN PASS    PTSUNNY   64  45  50 SE5       30.00S
SPOKANE        PTSUNNY   70  46  42 NE7       29.83S
$$

REGIONAL REPORTS...ALBERTA
CITY           SKY/WX    TMP DP  RH WIND       PRES   REMARKS
CALGARY        PTSUNNY   66  37  34 VRB2      29.84F
LETHBRIDGE     PTSUNNY   73  45  37 NW3       29.84F
MEDICINE HAT   SUNNY     72  50  46 N3        29.83F
EDMONTON       PTSUNNY   72  48  43 SE5       29.77F
WATERTON GATE  N/A       77  43  30 SW6        N/A
CARDSTON       N/A       73  52  48 CALM       N/A
MILK RIVER     N/A       75  45  34 SE3        N/A
$$

REGIONAL REPORTS...SASKATCHEWAN
CITY           SKY/WX    TMP DP  RH WIND       PRES   REMARKS
SWIFT CURRENT  SUNNY     75  45  34 S8        29.87F
MOOSE JAW      N/A       57  48  72 SE14      29.96F
REGINA         SUNNY     59  48  67 E16G22    29.99S
VAL MARIE      N/A       73  48  41 S14        N/A
ASSINIBOIA     N/A       73  43  34 SE9        N/A
CORONACH       N/A       73  39  29 SE14G21    N/A

$$



USA.gov is the U.S. government's official web portal to all federal, state and local government web resources and services.